sat.trackr.live / text

‹ back to catalog

STARLINK-37365

NORAD 69186 · 2026-114E

PAYLOAD ACTIVE UNKNOWN

§ Identity

Operator
Country
US
Launch date
2026-05-25
Launch site
AFETR
Launch vehicle
Mass (kg)
RCS (m²)

Purposes: comms

External: N2YO · Heavens-Above · Gunter

§ Orbital elements

Epoch: 2026-09-19T23:38:12.062976Z

Period
93.85 min
Inclination
53.1588°
Eccentricity
0.0001269
Mean motion
15.34399427 rev/d
Perigee alt
461.8 km
Apogee alt
463.6 km
Semi-major
6,840.8 km
B*
4.7629e-4
RAAN
116.3895°
Arg perigee
90.3542°
Mean anomaly
269.7606°
Rev number
1,936

§ Raw data

STARLINK-373651 69186U 26114E   26262.98486184  .00015750  00000+0  47629-3 0  99982 69186  53.1588 116.3895 0001269  90.3542 269.7606 15.34399427 19368

JSON: /api/v1/satellites/69186 · /tle

For live sub-satellite position, see the globe view (requires WebGL).

§ Visibility from observer

Set your observer location to see the next 7 days of passes ≥ 10°. The values pass through the URL so the page stays shareable.

No JS? Fill the form by hand. The geolocation button needs JavaScript.